Temperature
-1 -1 -1 -1 -2 -2 -2 -2 -2 -2 -2 -3 -3 -3 -3 -3 -3 -3 -3 -3 -3 -2 -2 -2 -2 -2 -2 -2 -2 -2 -2 -2 -2 -1 -1 -0 0 0 1 1 1 1 2
-2 -2 -2 -2 -2 -2 -3 -3 -3 -3 -3 -3 -3 -3 -3 -3 -3 -3 -3 -3 -3 -3 -3 -3 -3 -3 -2 -2 -2 -2 -2 -2 -2 -2 -1 -1 -1 -0 0 0 1 1 1
-2 -2 -3 -3 -3 -3 -3 -3 -3 -4 -4 -4 -4 -4 -4 -4 -4 -4 -4 -4 -4 -4 -4 -4 -3 -3 -3 -3 -3 -3 -3 -3 -3 -3 -2 -2 -1 -1 -1 -0 0 0 1
-3 -3 -3 -3 -3 -3 -3 -4 -4 -4 -4 -4 -4 -4 -4 -4 -4 -4 -4 -4 -4 -4 -5 -4 -4 -4 -4 -4 -4 -3 -3 -3 -3 -3 -3 -3 -2 -2 -1 -1 -1 -0 0
-3 -3 -3 -3 -4 -4 -4 -4 -4 -4 -5 -5 -5 -5 -5 -5 -5 -5 -5 -5 -5 -5 -5 -5 -5 -5 -5 -5 -4 -4 -4 -4 -4 -3 -3 -3 -3 -2 -2 -2 -1 -1 -0
-4 -4 -4 -4 -4 -4 -4 -5 -5 -5 -5 -5 -5 -5 -5 -5 -6 -6 -6 -5 -5 -6 -5 -5 -5 -5 -5 -5 -5 -4 -4 -4 -4 -4 -4 -4 -3 -3 -3 -2 -2 -2 -1
-4 -4 -4 -5 -5 -5 -5 -5 -5 -5 -5 -5 -6 -6 -6 -6 -6 -6 -6 -6 -6 -6 -6 -6 -6 -5 -5 -5 -5 -5 -5 -4 -4 -4 -4 -4 -4 -3 -3 -3 -2 -2 -2
-5 -5 -5 -5 -5 -5 -5 -5 -6 -6 -6 -6 -6 -6 -6 -6 -6 -6 -6 -6 -6 -6 -6 -6 -6 -6 -6 -6 -5 -5 -5 -5 -4 -4 -4 -4 -4 -4 -3 -3 -3 -3 -2
-5 -5 -5 -5 -6 -6 -6 -6 -6 -6 -6 -7 -7 -7 -7 -7 -7 -7 -7 -7 -6 -6 -6 -6 -6 -6 -6 -6 -6 -5 -5 -5 -5 -5 -5 -4 -4 -4 -4 -4 -3 -3 -3
-6 -6 -6 -6 -6 -6 -6 -7 -7 -7 -7 -7 -7 -7 -7 -7 -7 -7 -7 -7 -7 -7 -7 -7 -7 -7 -6 -6 -6 -6 -6 -6 -5 -5 -5 -5 -5 -4 -4 -4 -4 -4 -3
-6 -6 -6 -7 -7 -7 -7 -7 -7 -8 -8 -8 -8 -8 -8 -8 -8 -8 -8 -8 -8 -7 -7 -7 -7 -7 -7 -7 -6 -6 -6 -6 -6 -6 -6 -5 -5 -5 -5 -4 -4 -4 -4
-7 -7 -7 -7 -7 -7 -8 -8 -8 -8 -8 -8 -8 -8 -8 -8 -8 -8 -8 -8 -8 -8 -8 -8 -8 -7 -7 -7 -7 -7 -7 -7 -6 -6 -6 -6 -6 -6 -5 -5 -5 -5 -4
-7 -7 -7 -8 -8 -8 -8 -8 -9 -9 -9 -9 -9 -9 -9 -9 -9 -9 -9 -8 -8 -8 -8 -8 -8 -8 -8 -7 -7 -7 -7 -7 -7 -7 -7 -7 -7 -6 -6 -6 -5 -5 -5
-8 -8 -8 -8 -8 -9 -9 -9 -9 -9 -9 -9 -9 -9 -9 -9 -9 -9 -9 -9 -9 -9 -8 -8 -8 -8 -8 -8 -8 -8 -8 -8 -8 -8 -7 -7 -7 -7 -7 -7 -6 -6 -5
-8 -9 -9 -9 -9 -9 -9 -10 -10 -10 -10 -10 -10 -10 -10 -10 -10 -10 -10 -9 -9 -9 -9 -9 -9 -9 -8 -8 -8 -8 -8 -8 -8 -8 -8 -8 -8 -8 -7 -7 -7 -7 -6
-9 -9 -9 -10 -10 -10 -10 -10 -10 -10 -10 -10 -10 -10 -10 -10 -10 -10 -10 -10 -10 -10 -9 -9 -9 -9 -9 -9 -9 -9 -9 -9 -9 -9 -9 -8 -8 -8 -8 -8 -8 -7 -7
-10 -10 -10 -10 -10 -11 -11 -11 -11 -10 -11 -11 -11 -11 -11 -11 -11 -11 -11 -10 -10 -10 -10 -10 -10 -10 -10 -10 -10 -10 -10 -9 -9 -9 -9 -9 -9 -9 -9 -9 -8 -8 -8
-10 -10 -11 -11 -11 -11 -11 -11 -11 -11 -11 -11 -11 -11 -11 -11 -11 -11 -11 -11 -11 -11 -11 -11 -11 -11 -11 -10 -10 -10 -10 -10 -10 -10 -10 -10 -9 -9 -9 -9 -9 -9 -8
-11 -11 -11 -11 -11 -12 -12 -12 -12 -12 -12 -12 -12 -11 -12 -12 -12 -12 -12 -12 -12 -12 -12 -12 -12 -11 -11 -11 -11 -11 -11 -11 -10 -10 -10 -10 -10 -10 -10 -9 -9 -9 -9
-11 -11 -12 -12 -12 -12 -12 -12 -12 -12 -13 -13 -13 -12 -12 -12 -12 -12 -12 -12 -12 -12 -12 -12 -12 -12 -12 -12 -11 -11 -11 -11 -11 -11 -10 -10 -10 -10 -10 -10 -9 -9 -9
-12 -12 -12 -12 -12 -12 -13 -13 -13 -13 -13 -13 -13 -13 -13 -13 -13 -13 -13 -13 -13 -13 -13 -12 -12 -12 -12 -12 -12 -12 -11 -11 -11 -11 -11 -11 -11 -10 -10 -10 -10 -10 -9
-12 -12 -12 -13 -13 -13 -13 -13 -13 -13 -13 -13 -13 -13 -13 -13 -13 -13 -13 -13 -13 -13 -13 -13 -13 -13 -13 -12 -12 -12 -12 -12 -12 -11 -11 -11 -11 -11 -11 -10 -10 -10 -10
-13 -13 -13 -13 -13 -13 -13 -13 -13 -13 -13 -14 -14 -14 -14 -14 -14 -14 -14 -13 -13 -13 -13 -13 -13 -13 -13 -13 -13 -12 -12 -12 -12 -12 -12 -11 -11 -11 -11 -11 -11 -10 -10
-13 -13 -13 -13 -13 -13 -13 -13 -14 -14 -14 -14 -14 -14 -14 -14 -14 -14 -14 -14 -14 -13 -13 -13 -13 -13 -13 -13 -13 -13 -13 -12 -12 -12 -12 -12 -12 -12 -11 -11 -11 -11 -11
-14 -14 -14 -14 -14 -14 -14 -14 -14 -14 -14 -14 -14 -14 -14 -14 -14 -14 -14 -14 -14 -13 -13 -13 -13 -13 -13 -13 -13 -13 -13 -13 -13 -12 -12 -12 -12 -12 -11 -11 -11 -11 -11
-14 -14 -14 -14 -14 -14 -14 -14 -14 -14 -14 -14 -14 -14 -14 -14 -14 -14 -14 -14 -14 -14 -13 -13 -13 -13 -13 -13 -13 -13 -13 -13 -13 -12 -12 -12 -12 -12 -12 -12 -11 -11 -11
Wind_Speed
1 1 1 1 1 2 2 2 2 2 2 3 3 4 4 4 4 4 5 6 6 6 6 6 7 6 5 4 5 5 5 5 8 8 6 5 6 7 7 9 10 9 10
1 1 1 1 1 2 2 3 2 3 3 3 4 4 5 5 5 5 6 6 6 7 7 7 7 7 6 5 5 6 6 6 7 9 7 6 7 7 7 7 7 8 8
1 1 2 2 2 2 3 2 3 3 3 4 4 5 5 5 5 5 6 6 7 7 7 8 8 7 7 5 6 6 6 6 6 7 8 6 6 5 6 7 7 6 8
1 1 2 2 2 2 3 2 3 3 3 4 4 5 5 6 6 6 6 7 7 7 8 8 8 8 7 7 7 6 6 6 6 6 7 6 6 5 5 5 6 5 6
1 2 2 2 2 2 3 2 3 3 4 4 5 5 5 6 6 7 6 7 8 8 8 8 8 10 11 9 8 6 6 6 6 7 7 6 5 5 5 5 6 5 6
2 2 2 2 2 2 2 2 3 3 4 4 5 5 6 6 11 14 11 7 7 8 8 8 8 9 11 13 14 12 10 8 7 7 7 7 8 6 6 6 5 5 6
1 1 1 2 2 3 3 3 3 4 4 5 5 5 6 8 13 14 14 9 7 7 8 7 8 8 10 7 10 12 12 13 12 9 9 9 8 7 7 7 7 7 7
1 1 2 2 3 3 3 3 4 4 4 5 5 6 6 8 14 14 15 8 7 7 7 7 7 8 9 9 7 7 7 8 10 8 8 9 9 8 8 8 7 6 5
1 2 2 3 3 3 3 4 4 4 5 5 5 6 6 8 13 14 14 6 6 7 7 7 7 7 12 14 9 7 7 7 10 11 12 11 12 12 9 5 5 4 5
2 3 3 3 3 3 4 4 4 4 5 6 6 6 6 7 12 14 14 5 6 6 6 6 10 11 13 13 7 6 8 7 6 7 7 8 8 9 9 6 5 5 4
2 3 3 3 3 3 3 4 4 5 5 5 6 6 6 8 11 13 13 6 6 6 6 5 6 13 14 13 11 7 9 8 5 5 5 5 5 4 4 5 4 4 5
2 3 3 3 3 4 3 4 4 4 5 5 5 6 5 6 9 11 13 12 11 7 6 6 7 13 14 13 10 9 10 8 4 4 4 4 4 4 4 4 4 4 4
3 3 3 4 4 4 3 4 4 3 4 5 5 5 5 5 7 12 14 14 13 8 6 10 12 13 12 9 9 10 7 4 4 4 4 4 4 4 4 3 4 3 3
3 3 3 3 4 3 4 3 3 4 4 5 5 6 6 6 6 6 6 8 10 8 7 9 12 11 9 8 7 5 4 3 4 4 4 4 3 3 3 3 3 3 2
3 4 4 4 4 4 4 3 4 3 4 5 4 5 6 6 8 12 10 7 6 7 7 5 4 4 4 3 3 4 3 3 4 3 3 3 4 4 4 3 3 2 3
3 4 3 4 4 4 4 5 7 7 10 11 11 9 8 10 14 14 14 13 13 12 8 5 5 4 4 4 4 4 4 3 3 3 3 3 3 3 4 3 3 2 3
3 4 4 4 4 4 4 5 6 8 10 11 11 12 11 13 13 13 13 12 12 10 6 4 4 4 4 4 4 4 4 4 4 3 3 3 3 3 4 4 3 3 3
3 4 4 4 4 4 4 4 5 5 7 6 9 12 13 13 13 13 12 10 7 6 4 4 4 5 4 4 4 4 4 4 4 4 3 3 3 3 3 4 3 3 3
3 3 3 3 4 4 4 4 4 5 5 6 6 8 12 12 12 12 10 5 5 5 5 4 4 5 4 4 4 4 4 4 4 4 4 4 3 3 3 4 4 5 4
4 6 6 4 4 4 4 4 5 5 5 6 6 6 6 7 6 7 6 5 5 5 5 5 4 5 4 4 4 4 4 4 4 4 4 4 4 3 4 4 4 4 4
3 5 7 5 4 4 4 5 5 5 5 6 6 8 10 6 5 6 6 5 5 5 5 5 4 4 4 4 4 4 5 4 4 4 4 4 4 4 4 4 4 4 3
3 4 4 4 4 4 5 5 5 5 6 6 6 7 11 6 5 5 5 6 5 5 5 5 5 4 4 4 4 4 5 5 5 5 5 4 4 4 4 4 4 4 3
3 4 4 4 4 7 6 5 5 5 6 6 6 6 6 6 6 6 6 6 5 5 6 5 5 5 6 6 6 5 5 6 6 5 5 5 5 5 4 5 5 4 4
3 4 4 4 5 4 5 5 5 5 6 6 6 6 6 6 6 7 6 6 6 6 6 6 6 7 8 8 7 8 8 8 8 7 7 6 6 6 5 5 5 5 5
3 4 4 4 5 5 5 5 5 5 6 6 6 6 6 7 7 7 7 6 7 7 7 8 7 8 9 10 10 10 11 12 11 9 7 6 6 6 6 6 6 5 5
3 4 4 4 4 5 5 5 5 6 6 6 6 6 7 7 7 7 7 7 7 7 7 8 9 10 11 10 11 12 13 13 12 12 8 6 5 5 5 5 6 6 5
Wind_Direction
171 191 213 262 291 301 298 285 284 288 294 287 289 292 291 294 292 291 290 292 292 292 290 288 282 281 279 276 270 260 258 260 270 283 287 289 287 286 286 284 276 274 263
196 203 228 258 273 281 288 289 288 287 289 287 287 286 287 289 287 283 286 289 286 287 287 284 283 283 279 280 275 266 261 259 264 277 284 282 276 273 276 279 280 278 270
216 222 240 252 263 275 284 288 288 287 290 289 285 283 285 286 282 277 278 280 281 282 283 282 281 280 279 277 274 272 270 271 267 271 279 280 278 272 275 279 278 279 275
225 245 251 259 268 277 285 283 285 286 289 288 284 282 285 286 283 278 277 278 279 279 279 278 278 275 276 278 275 272 274 274 271 270 275 278 277 268 261 267 277 275 277
235 247 259 267 271 277 280 280 285 286 290 287 288 289 288 285 281 279 274 277 277 278 277 274 273 280 281 280 278 274 275 275 276 272 276 279 278 271 263 265 270 277 279
245 257 272 278 273 273 272 278 285 286 288 288 286 286 286 288 294 298 299 286 283 279 280 278 277 279 283 284 283 281 277 273 273 275 278 272 270 268 267 268 269 276 280
281 276 288 291 289 282 285 284 284 285 288 289 288 287 286 290 298 300 301 301 289 283 281 282 287 288 291 281 281 282 279 277 273 271 270 269 271 267 261 262 261 264 267
312 316 321 315 302 296 292 284 286 289 288 288 289 289 288 292 301 304 305 303 291 284 282 279 279 282 283 285 281 279 277 279 277 275 267 267 270 270 262 258 258 272 280
327 330 326 314 305 299 292 288 291 293 290 289 290 288 290 294 301 306 307 299 292 288 287 286 284 280 287 292 289 282 284 285 289 287 288 286 284 280 276 272 263 262 277
330 325 319 309 302 297 292 292 294 294 292 294 294 291 288 288 299 305 309 302 298 293 288 287 291 292 292 295 287 280 282 288 294 296 295 294 288 281 277 262 250 252 271
335 325 318 314 304 296 297 301 298 296 298 297 296 295 291 295 302 307 310 310 301 296 293 292 289 297 297 297 295 285 285 293 289 288 291 293 293 286 281 280 267 251 254
337 325 317 313 309 311 302 298 300 300 298 298 298 301 299 302 309 310 313 312 309 301 296 296 294 300 301 301 299 295 296 299 295 291 293 292 294 296 293 292 288 276 269
334 323 318 319 317 313 304 302 304 301 296 299 303 306 310 310 312 315 316 316 315 310 301 302 304 305 306 303 298 299 302 300 296 294 293 296 299 300 306 308 313 314 313
327 321 319 321 317 315 310 305 304 304 301 301 304 306 308 310 309 310 309 310 312 308 305 305 307 307 306 304 304 303 304 297 297 294 299 301 308 305 304 307 305 312 308
327 321 321 318 313 312 307 300 302 289 296 303 300 300 305 306 308 313 315 314 315 307 309 304 304 310 311 312 310 308 307 309 307 305 302 300 305 307 305 307 297 305 296
326 323 322 320 317 315 313 314 310 311 312 313 314 312 307 309 314 317 319 320 323 323 322 317 317 318 318 320 320 319 317 313 308 304 300 300 301 303 304 304 302 294 293
314 314 316 318 319 318 317 317 318 319 317 317 319 320 320 321 322 324 325 326 329 330 326 319 317 318 316 316 317 316 315 315 312 305 300 296 293 294 298 298 297 294 291
316 313 316 310 310 311 313 314 314 317 321 322 321 322 324 325 326 328 329 331 332 332 325 320 318 316 314 312 311 311 311 313 314 310 304 297 291 286 287 290 287 284 284
316 313 312 308 307 306 308 309 310 312 313 316 320 324 326 327 328 330 332 334 325 322 322 318 317 317 314 311 309 309 307 305 306 307 303 298 293 286 282 283 283 283 284
313 314 319 314 312 311 312 311 311 311 312 314 316 319 324 326 327 329 331 329 321 317 317 315 315 316 316 314 312 311 308 304 303 299 297 296 294 285 277 276 277 274 274
312 311 317 316 312 310 309 308 308 309 310 311 311 315 323 324 321 321 323 323 320 315 313 311 309 309 310 310 307 305 302 300 299 295 292 290 288 287 285 281 280 275 272
310 309 310 307 308 308 307 306 308 308 309 310 312 315 321 324 319 317 315 315 314 313 309 306 303 300 299 299 298 296 294 294 295 296 292 288 286 283 281 279 281 277 266
308 306 308 308 308 308 312 310 308 307 308 311 313 316 318 317 315 314 312 312 312 311 309 306 301 298 298 298 294 285 284 285 287 287 288 288 284 279 277 274 270 270 265
306 307 307 308 310 308 306 306 306 308 308 309 311 312 313 312 312 311 311 309 309 307 307 304 299 296 297 298 295 289 285 287 288 284 277 274 276 274 271 269 267 261 257
311 310 310 310 311 310 309 308 307 308 309 310 311 311 311 311 309 309 307 307 305 303 302 301 299 297 296 295 295 293 292 292 292 290 279 271 270 268 266 262 261 258 253
305 305 304 305 305 306 308 308 308 308 307 307 307 305 305 305 306 306 306 305 305 302 300 300 297 297 297 297 296 296 297 297 294 292 287 271 267 267 268 263 259 253 249
Height
1499 1499 1499 1499 1499 1498 1498 1497 1496 1495 1494 1493 1493 1492 1491 1490 1489 1487 1486 1485 1484 1483 1482 1482 1481 1480 1479 1478 1478 1477 1477 1476 1473 1470 1470 1470 1470 1470 1470 1470 1470 1470 1470
1495 1495 1495 1495 1495 1494 1494 1493 1492 1491 1490 1489 1488 1487 1486 1485 1484 1483 1481 1480 1479 1478 1477 1476 1475 1474 1473 1472 1472 1471 1471 1470 1469 1465 1464 1464 1464 1464 1464 1464 1463 1464 1464
1492 1492 1491 1491 1491 1490 1490 1489 1488 1487 1486 1485 1484 1483 1482 1481 1479 1478 1477 1475 1474 1473 1472 1471 1470 1469 1467 1466 1466 1465 1465 1464 1464 1462 1459 1459 1458 1458 1458 1458 1457 1457 1457
1488 1488 1488 1487 1487 1487 1486 1485 1484 1483 1482 1481 1480 1479 1477 1476 1475 1473 1472 1470 1469 1467 1467 1466 1465 1463 1462 1461 1461 1460 1459 1459 1458 1456 1455 1453 1452 1452 1452 1452 1450 1451 1451
1485 1484 1484 1484 1483 1483 1482 1481 1480 1479 1478 1477 1476 1474 1473 1471 1470 1468 1467 1465 1464 1462 1461 1460 1459 1458 1457 1456 1456 1455 1454 1453 1452 1451 1449 1448 1447 1446 1446 1446 1446 1444 1444
1481 1481 1480 1480 1479 1479 1478 1477 1476 1475 1474 1472 1471 1470 1468 1467 1465 1464 1463 1461 1459 1457 1455 1454 1453 1452 1451 1451 1451 1450 1450 1448 1446 1445 1444 1442 1441 1441 1441 1441 1441 1440 1438
1478 1477 1477 1476 1475 1475 1474 1473 1471 1470 1469 1468 1466 1465 1463 1462 1461 1459 1458 1456 1454 1452 1450 1449 1448 1446 1446 1446 1445 1444 1443 1442 1442 1441 1438 1437 1436 1436 1436 1435 1434 1434 1433
1474 1474 1473 1472 1472 1471 1470 1468 1467 1466 1465 1463 1462 1460 1459 1457 1456 1455 1453 1451 1449 1447 1445 1444 1442 1441 1441 1440 1439 1437 1436 1436 1435 1434 1433 1431 1431 1430 1430 1430 1429 1429 1428
1471 1470 1469 1469 1468 1467 1466 1465 1464 1462 1461 1459 1458 1456 1454 1452 1451 1450 1448 1446 1443 1441 1440 1439 1437 1436 1435 1435 1434 1432 1431 1430 1430 1429 1428 1426 1425 1425 1425 1425 1424 1423 1421
1468 1467 1467 1466 1465 1463 1462 1461 1460 1459 1457 1455 1453 1452 1450 1448 1447 1445 1444 1441 1439 1437 1435 1434 1433 1432 1431 1430 1429 1427 1425 1424 1424 1423 1422 1421 1420 1419 1419 1419 1419 1418 1417
1465 1464 1463 1462 1461 1460 1459 1458 1456 1455 1453 1451 1450 1448 1446 1444 1443 1441 1440 1437 1435 1432 1430 1429 1428 1427 1426 1425 1424 1423 1421 1420 1419 1418 1416 1415 1414 1413 1413 1413 1413 1414 1413
1462 1461 1460 1459 1458 1457 1456 1454 1453 1451 1449 1447 1446 1444 1442 1440 1439 1437 1435 1433 1431 1428 1426 1424 1423 1423 1422 1420 1419 1418 1417 1416 1415 1413 1411 1410 1410 1409 1408 1408 1408 1409 1409
1459 1458 1457 1456 1455 1454 1452 1451 1449 1448 1446 1444 1442 1440 1438 1436 1435 1433 1431 1429 1427 1424 1422 1420 1419 1418 1417 1416 1415 1414 1413 1412 1410 1409 1407 1406 1406 1405 1404 1404 1403 1403 1403
1456 1455 1454 1453 1452 1451 1449 1448 1446 1445 1443 1441 1439 1437 1434 1432 1430 1428 1426 1424 1422 1420 1418 1416 1415 1413 1413 1412 1411 1410 1409 1408 1407 1406 1404 1403 1402 1401 1400 1400 1399 1399 1399
1454 1453 1451 1450 1449 1448 1446 1445 1443 1442 1441 1439 1436 1434 1432 1429 1427 1426 1424 1421 1419 1417 1414 1412 1410 1409 1408 1407 1406 1406 1405 1404 1403 1402 1401 1399 1399 1398 1397 1397 1396 1396 1396
1451 1450 1449 1448 1446 1445 1443 1442 1440 1439 1437 1436 1434 1432 1429 1427 1424 1422 1420 1418 1415 1413 1411 1408 1407 1406 1405 1404 1403 1402 1401 1400 1400 1399 1398 1397 1396 1395 1394 1394 1394 1393 1393
1450 1448 1447 1446 1444 1442 1441 1439 1437 1435 1434 1432 1430 1428 1426 1423 1421 1419 1416 1414 1412 1410 1407 1405 1404 1403 1402 1401 1400 1399 1398 1397 1396 1395 1395 1394 1393 1393 1392 1391 1391 1390 1390
1448 1446 1445 1443 1442 1440 1438 1437 1435 1432 1430 1428 1426 1424 1422 1420 1418 1415 1413 1411 1408 1406 1404 1403 1402 1400 1399 1398 1397 1396 1395 1394 1393 1392 1391 1391 1390 1390 1389 1388 1388 1388 1387
1445 1444 1443 1441 1439 1438 1436 1434 1432 1430 1428 1425 1423 1421 1419 1417 1415 1412 1410 1408 1405 1404 1402 1401 1399 1398 1397 1395 1394 1393 1392 1391 1390 1389 1388 1388 1387 1387 1386 1386 1385 1385 1385
1443 1442 1440 1439 1437 1435 1433 1432 1430 1428 1425 1423 1421 1418 1416 1414 1411 1409 1407 1405 1403 1401 1400 1398 1397 1395 1394 1393 1392 1390 1389 1388 1387 1386 1385 1385 1384 1384 1383 1383 1382 1382 1382
1441 1439 1438 1436 1434 1433 1431 1429 1427 1425 1423 1421 1419 1416 1415 1412 1409 1407 1405 1403 1401 1399 1397 1396 1394 1393 1391 1390 1389 1387 1386 1385 1384 1383 1382 1381 1381 1380 1380 1380 1379 1379 1379
1438 1437 1435 1434 1432 1430 1428 1427 1425 1423 1420 1418 1416 1414 1412 1409 1407 1404 1402 1400 1398 1396 1395 1393 1391 1390 1388 1387 1385 1384 1383 1381 1380 1379 1379 1378 1377 1377 1376 1376 1376 1375 1375
1436 1434 1433 1431 1430 1428 1426 1424 1422 1420 1418 1415 1413 1411 1408 1406 1404 1401 1399 1397 1395 1393 1391 1389 1388 1386 1385 1383 1382 1381 1379 1378 1377 1376 1375 1374 1373 1373 1372 1372 1372 1372 1372
1433 1432 1430 1428 1427 1425 1423 1421 1419 1417 1415 1413 1410 1408 1406 1403 1401 1398 1396 1394 1391 1389 1387 1386 1384 1382 1381 1380 1378 1377 1376 1375 1374 1373 1372 1371 1370 1369 1369 1368 1368 1368 1368
1431 1429 1427 1425 1424 1422 1420 1418 1416 1414 1412 1409 1407 1405 1402 1400 1397 1395 1392 1390 1388 1385 1383 1381 1380 1378 1377 1375 1374 1373 1372 1371 1370 1369 1368 1367 1366 1365 1365 1364 1364 1364 1364
1428 1426 1424 1423 1421 1419 1417 1415 1413 1411 1408 1406 1404 1401 1399 1396 1394 1391 1389 1386 1383 1381 1379 1377 1375 1374 1372 1371 1370 1369 1367 1366 1366 1365 1364 1363 1362 1361 1361 1361 1360 1360 1361